Sparta, WI

1:15 AM CDT on October 21, 2017 (GMT -0500)
Sparta-Fort McCoy

Weather History for KCMY - October, 2013

Change the Weather History Date:

Saturday, October 12, 2013

  Actual Average Record
Temperature  
Mean Temperature 52 °F -  
Max Temperature 68 °F 61 °F 83 °F (1960)
Min Temperature 36 °F 36 °F 15 °F (2012)
Degree Days  
Heating Degree Days 13    
Growing Degree Days 2 (Base 50)    
Moisture  
Dew Point 43 °F    
Average Humidity 58    
Maximum Humidity 94    
Minimum Humidity 37    
Precipitation  
Precipitation 0.00 in - - ()
Sea Level Pressure  
Sea Level Pressure 29.96 in    
Wind  
Wind Speed 9 mph (SW)    
Max Wind Speed 15 mph    
Max Gust Speed 23 mph    
Visibility 10 miles    
Events Rain    
Averages and records for this station are not official NWS values.
T = Trace of Precipitation, MM = Missing Value Source: NWS Daily Summary

Daily Weather History Graph

Daily Weather History Graph

Search for Another Location

Airport or City:

Trip Planner

Search our weather history database for the weather conditions in past years. The results will help you decide how hot, cold, wet, or windy it might be!

Date:

Astronomy

Oct. 12, 2013 Rise Set
Actual Time 7:14 AM CDT 6:23 PM CDT
Civil Twilight 6:45 AM CDT 6:52 PM CDT
Nautical Twilight 6:11 AM CDT 7:26 PM CDT
Astronomical Twilight 5:38 AM CDT 7:59 PM CDT
Moon 2:45 PM CDT (10/12) 12:05 AM CDT (10/12)
Length of Visible Light 12h 07m
Length of Day
11h 09m
First Quarter, 59% of the Moon is Illuminated
Oct 12
First Quarter
Oct 18
Full
Oct 26
Last Quarter
Nov 3
New
Nov 9
First Quarter

Hourly Weather History & Observations

Time (CDT) Temp. Windchill Dew Point Humidity Pressure Visibility Wind Dir Wind Speed Gust Speed Precip Events Conditions
12:15 AM 68.9 °F - 51.4 °F 54% 29.83 in 10.0 mi SSE 11.5 mph 18.4 mph N/A   Overcast
12:35 AM 68.5 °F - 51.8 °F 55% 29.83 in 10.0 mi SSE 9.2 mph 18.4 mph N/A   Mostly Cloudy
12:55 AM 68.4 °F - 51.8 °F 55% 29.82 in 10.0 mi SSE 12.7 mph - N/A   Mostly Cloudy
1:15 AM 68.4 °F - 52.0 °F 56% 29.82 in 10.0 mi SSE 10.4 mph 19.6 mph N/A   Overcast
1:35 AM 68.0 °F - 52.5 °F 58% 29.82 in 10.0 mi South 12.7 mph 18.4 mph N/A   Mostly Cloudy
1:55 AM 66.2 °F - 52.7 °F 62% 29.82 in 10.0 mi SSE 8.1 mph - N/A   Scattered Clouds
2:15 AM 66.2 °F - 52.7 °F 62% 29.82 in 10.0 mi South 10.4 mph - N/A   Clear
2:35 AM 66.4 °F - 52.3 °F 61% 29.82 in 10.0 mi South 10.4 mph 16.1 mph N/A   Clear
2:55 AM 66.2 °F - 52.7 °F 62% 29.82 in 10.0 mi SSE 9.2 mph - N/A   Clear
3:15 AM 65.5 °F - 52.7 °F 63% 29.81 in 10.0 mi SSE 10.4 mph 16.1 mph N/A   Clear
3:35 AM 65.7 °F - 52.9 °F 63% 29.82 in 10.0 mi SSE 8.1 mph - N/A   Clear
3:55 AM 66.2 °F - 53.1 °F 63% 29.82 in 10.0 mi South 11.5 mph - N/A   Mostly Cloudy
4:15 AM 65.3 °F - 53.2 °F 65% 29.83 in 10.0 mi South 8.1 mph - N/A   Mostly Cloudy
4:35 AM 65.3 °F - 53.2 °F 65% 29.83 in 10.0 mi South 9.2 mph - N/A   Mostly Cloudy
4:55 AM 65.5 °F - 53.6 °F 65% 29.83 in 10.0 mi South 5.8 mph - N/A   Overcast
5:15 AM 64.9 °F - 54.0 °F 68% 29.81 in 10.0 mi SE 4.6 mph - N/A Rain Light Rain
5:35 AM 64.4 °F - 54.5 °F 70% 29.83 in 10.0 mi South 4.6 mph - N/A Rain Light Rain
5:55 AM 63.9 °F - 54.5 °F 72% 29.83 in 10.0 mi SSW 3.5 mph - N/A   Mostly Cloudy
6:15 AM 63.7 °F - 54.7 °F 72% 29.84 in 10.0 mi South 4.6 mph - N/A   Overcast
6:35 AM 64.4 °F - 55.0 °F 72% 29.84 in 10.0 mi South 5.8 mph - N/A   Overcast
6:55 AM 64.4 °F - 55.4 °F 73% 29.86 in 10.0 mi WSW 4.6 mph - N/A   Overcast
7:15 AM 62.4 °F - 52.0 °F 69% 29.87 in 10.0 mi West 8.1 mph - N/A   Overcast
7:35 AM 59.2 °F - 47.5 °F 65% 29.89 in 10.0 mi West 11.5 mph 18.4 mph N/A   Overcast
7:55 AM 57.7 °F - 46.4 °F 66% 29.90 in 10.0 mi West 9.2 mph - N/A   Overcast
8:15 AM 57.2 °F - 45.7 °F 65% 29.90 in 10.0 mi West 6.9 mph - N/A   Scattered Clouds
8:35 AM 56.7 °F - 45.0 °F 65% 29.91 in 10.0 mi WSW 9.2 mph - N/A   Mostly Cloudy
8:55 AM 56.7 °F - 44.1 °F 63% 29.91 in 10.0 mi WSW 8.1 mph - N/A   Scattered Clouds
9:15 AM 57.4 °F - 43.5 °F 60% 29.92 in 10.0 mi West 10.4 mph - N/A   Clear
9:35 AM 58.5 °F - 43.0 °F 56% 29.92 in 10.0 mi WSW 9.2 mph - N/A   Clear
9:55 AM 58.5 °F - 43.0 °F 56% 29.93 in 10.0 mi West 6.9 mph - N/A   Clear
10:15 AM 58.8 °F - 43.3 °F 56% 29.93 in 10.0 mi West 9.2 mph - N/A   Clear
10:35 AM 58.5 °F - 42.8 °F 56% 29.94 in 10.0 mi West 11.5 mph 17.3 mph N/A   Clear
10:55 AM 58.6 °F - 42.1 °F 54% 29.95 in 10.0 mi WSW 8.1 mph 16.1 mph N/A   Clear
11:15 AM 59.2 °F - 41.9 °F 53% 29.94 in 10.0 mi WSW 8.1 mph - N/A   Clear
11:35 AM 60.3 °F - 41.7 °F 50% 29.95 in 10.0 mi WSW 5.8 mph 17.3 mph N/A   Clear
11:55 AM 61.2 °F - 41.4 °F 48% 29.95 in 10.0 mi WSW 10.4 mph - N/A   Clear
12:15 PM 61.7 °F - 41.0 °F 47% 29.96 in 10.0 mi West 9.2 mph - N/A   Clear
12:35 PM 61.7 °F - 40.6 °F 46% 29.96 in 10.0 mi WSW 10.4 mph 18.4 mph N/A   Clear
12:55 PM 62.6 °F - 40.1 °F 44% 29.96 in 10.0 mi West 12.7 mph 18.4 mph N/A   Clear
1:15 PM 62.8 °F - 39.9 °F 43% 29.96 in 10.0 mi SW 6.9 mph 17.3 mph N/A   Clear
1:35 PM 62.6 °F - 39.7 °F 43% 29.96 in 10.0 mi West 12.7 mph 20.7 mph N/A   Clear
1:55 PM 63.0 °F - 39.0 °F 41% 29.96 in 10.0 mi WSW 9.2 mph 21.9 mph N/A   Clear
2:15 PM 63.9 °F - 38.8 °F 40% 29.96 in 10.0 mi West 6.9 mph 23.0 mph N/A   Clear
2:35 PM 64.2 °F - 37.8 °F 38% 29.96 in 10.0 mi West 12.7 mph 20.7 mph N/A   Scattered Clouds
2:55 PM 64.4 °F - 37.8 °F 37% 29.97 in 10.0 mi West 15.0 mph 21.9 mph N/A   Scattered Clouds
3:15 PM 63.3 °F - 37.6 °F 39% 29.98 in 10.0 mi West 12.7 mph 21.9 mph N/A   Clear
3:35 PM 61.3 °F - 36.7 °F 40% 29.99 in 10.0 mi West 15.0 mph 18.4 mph N/A   Clear
3:55 PM 61.5 °F - 36.3 °F 39% 30.00 in 10.0 mi West 11.5 mph 21.9 mph N/A   Mostly Cloudy
4:15 PM 61.5 °F - 36.1 °F 39% 30.01 in 10.0 mi West 13.8 mph 20.7 mph N/A   Mostly Cloudy
4:35 PM 60.4 °F - 36.5 °F 41% 30.02 in 10.0 mi West 15.0 mph 21.9 mph N/A   Mostly Cloudy
4:55 PM 60.3 °F - 37.4 °F 43% 30.03 in 10.0 mi West 13.8 mph 18.4 mph N/A   Mostly Cloudy
5:15 PM 60.8 °F - 37.2 °F 42% 30.03 in 10.0 mi West 10.4 mph 19.6 mph N/A   Scattered Clouds
5:35 PM 60.4 °F - 36.1 °F 40% 30.04 in 10.0 mi West 8.1 mph 23.0 mph N/A   Scattered Clouds
5:55 PM 59.4 °F - 35.8 °F 41% 30.04 in 10.0 mi WSW 5.8 mph - N/A   Scattered Clouds
6:15 PM 58.6 °F - 35.1 °F 41% 30.05 in 10.0 mi WSW 13.8 mph 17.3 mph N/A   Scattered Clouds
6:35 PM 57.4 °F - 32.5 °F 39% 30.06 in 10.0 mi West 11.5 mph 18.4 mph N/A   Scattered Clouds
6:55 PM 56.5 °F - 34.2 °F 43% 30.08 in 10.0 mi West 10.4 mph 21.9 mph N/A   Clear
7:15 PM 55.8 °F - 34.0 °F 44% 30.08 in 10.0 mi West 8.1 mph - N/A   Clear
7:35 PM 54.5 °F - 34.7 °F 47% 30.09 in 10.0 mi West 3.5 mph - N/A   Clear
7:55 PM 52.7 °F - 35.1 °F 51% 30.10 in 10.0 mi Calm Calm - N/A   Clear
8:15 PM 51.4 °F - 34.7 °F 53% 30.10 in 10.0 mi WSW 3.5 mph - N/A   Clear
8:35 PM 50.5 °F - 34.7 °F 55% 30.11 in 10.0 mi WSW 3.5 mph - N/A   Clear
8:55 PM 43.7 °F - 36.0 °F 74% 30.11 in 10.0 mi Calm Calm - N/A   Clear
9:15 PM 42.8 °F - 36.0 °F 77% 30.12 in 10.0 mi Calm Calm - N/A   Clear
9:35 PM 41.5 °F - 35.8 °F 80% 30.12 in 10.0 mi Calm Calm - N/A   Clear
9:55 PM 40.5 °F - 35.8 °F 83% 30.13 in 10.0 mi Calm Calm - N/A   Clear
10:15 PM 39.0 °F 36.8 °F 34.7 °F 84% 30.14 in 10.0 mi South 3.5 mph - N/A   Clear
10:35 PM 38.3 °F - 35.2 °F 89% 30.16 in 10.0 mi Calm Calm - N/A   Clear
10:55 PM 37.8 °F - 34.9 °F 89% 30.16 in 10.0 mi Calm Calm - N/A   Clear
11:15 PM 36.7 °F - 33.8 °F 89% 30.17 in 10.0 mi Calm Calm - N/A   Clear
11:35 PM 36.5 °F - 34.2 °F 91% 30.18 in 10.0 mi Calm Calm - N/A   Clear
11:55 PM 36.5 °F - 34.9 °F 94% 30.19 in 10.0 mi Calm Calm - N/A   Clear